Decatur, IL

9:51 AM CDT on October 01, 2016 (GMT -0500)
Decatur

Weather History for KDEC - September, 2013

Change the Weather History Date:

Thursday, September 5, 2013

  Actual Average Record
Temperature  
Mean Temperature 72 °F 71 °F  
Max Temperature 87 °F 82 °F 93 °F (1998)
Min Temperature 57 °F 59 °F 46 °F (1997)
Degree Days  
Heating Degree Days 0 0  
Month to date heating degree days 0 0  
Since 1 July heating degree days 10 6  
Cooling Degree Days 7 6  
Month to date cooling degree days 33 32  
Year to date cooling degree days 905 950  
Growing Degree Days 22 (Base 50)    
Moisture  
Dew Point 58 °F    
Average Humidity 62    
Maximum Humidity 90    
Minimum Humidity 34    
Precipitation  
Precipitation 0.00 in 0.13 in 0.61 in (2012)
Month to date precipitation 0.00 0.64  
Year to date precipitation 26.37 26.95  
Sea Level Pressure  
Sea Level Pressure 30.17 in    
Wind  
Wind Speed 2 mph (East)    
Max Wind Speed 9 mph    
Max Gust Speed 14 mph    
Visibility 10 miles    
Events      
T = Trace of Precipitation, MM = Missing Value Source: NWS Daily Summary

Daily Weather History Graph

Daily Weather History Graph

Search for Another Location

Airport or City:

Trip Planner

Search our weather history database for the weather conditions in past years. The results will help you decide how hot, cold, wet, or windy it might be!

Date:

Astronomy

Sep. 05, 2013 Rise Set
Actual Time 6:27 AM CDT 7:19 PM CDT
Civil Twilight 5:59 AM CDT 7:47 PM CDT
Nautical Twilight 5:27 AM CDT 8:19 PM CDT
Astronomical Twilight 4:53 AM CDT 8:53 PM CDT
Moon 6:38 AM CDT (9/5) 7:11 PM CDT (9/5)
Length of Visible Light 13h 47m
Length of Day
12h 52m
New Moon, 0% of the Moon is Illuminated
Sep 5
New Moon
Sep 12
First Quarter
Sep 19
Full
Sep 26
Last Quarter
Oct 4
New

Hourly Weather History & Observations

Time (CDT) Temp. Heat Index Dew Point Humidity Pressure Visibility Wind Dir Wind Speed Gust Speed Precip Events Conditions
12:54 AM 64.9 °F - 57.9 °F 78% 30.14 in 10.0 mi SW 4.6 mph - N/A   Clear
1:54 AM 64.9 °F - 57.9 °F 78% 30.14 in 10.0 mi SW 3.5 mph - N/A   Clear
2:54 AM 63.0 °F - 57.0 °F 81% 30.15 in 10.0 mi Calm Calm - N/A   Clear
3:54 AM 57.9 °F - 54.0 °F 87% 30.16 in 10.0 mi Calm Calm - N/A   Clear
4:54 AM 60.1 °F - 55.0 °F 83% 30.17 in 10.0 mi Calm Calm - N/A   Clear
5:54 AM 60.1 °F - 55.0 °F 83% 30.17 in 10.0 mi Calm Calm - N/A   Clear
6:54 AM 60.1 °F - 57.0 °F 90% 30.17 in 7.0 mi Calm Calm - N/A   Clear
7:54 AM 66.0 °F - 60.1 °F 81% 30.19 in 8.0 mi Calm Calm - N/A   Clear
8:54 AM 72.0 °F - 63.0 °F 73% 30.19 in 10.0 mi Calm Calm - 0.00 in   Clear
9:54 AM 79.0 °F - 61.0 °F 54% 30.21 in 10.0 mi Calm Calm - N/A   Clear
10:54 AM 82.0 °F 81.7 °F 57.0 °F 42% 30.21 in 10.0 mi NNW 3.5 mph - N/A   Clear
11:54 AM 84.9 °F 83.3 °F 54.0 °F 34% 30.21 in 10.0 mi NE 6.9 mph - N/A   Clear
12:54 PM 84.9 °F 83.7 °F 55.9 °F 37% 30.20 in 10.0 mi NE 5.8 mph - N/A   Clear
1:54 PM 84.0 °F 83.0 °F 55.9 °F 38% 30.19 in 10.0 mi Calm Calm - N/A   Clear
2:54 PM 86.0 °F 84.7 °F 55.9 °F 36% 30.17 in 10.0 mi East 5.8 mph - N/A   Clear
3:54 PM 84.9 °F 83.7 °F 55.9 °F 37% 30.16 in 10.0 mi Variable 4.6 mph - N/A   Clear
4:54 PM 84.9 °F 84.2 °F 57.9 °F 40% 30.15 in 10.0 mi Variable 3.5 mph - N/A   Clear
5:54 PM 84.0 °F 83.8 °F 59.0 °F 43% 30.15 in 10.0 mi ESE 3.5 mph - N/A   Clear
6:54 PM 82.0 °F 82.4 °F 60.1 °F 47% 30.14 in 10.0 mi Calm Calm - N/A   Clear
7:54 PM 77.0 °F - 61.0 °F 58% 30.15 in 10.0 mi South 3.5 mph - N/A   Clear
8:54 PM 75.9 °F - 62.1 °F 62% 30.16 in 10.0 mi Calm Calm - N/A   Clear
9:54 PM 70.0 °F - 62.1 °F 76% 30.17 in 10.0 mi ENE 4.6 mph - N/A   Scattered Clouds
10:54 PM 68.0 °F - 63.0 °F 84% 30.18 in 10.0 mi NE 3.5 mph - N/A   Clear
11:54 PM 66.9 °F - 62.1 °F 84% 30.19 in 10.0 mi Calm Calm - N/A   Clear